This is the latest recevied weather packets stored in our database for station/object EA6AMI-5. If no packets are shown the sender has not sent any weather packets the latest 10 day(s).
| Time | Temp. | Humidity | Pressure | Rain* | Wind** | Luminosity | Snow |
|---|---|---|---|---|---|---|---|
| 1777961343 | 17.22° C | 81% | 1012 hPa | 0 mm | - | 80 W/m² | - |
| 1777960803 | 16.67° C | 83% | 1012.3 hPa | 0 mm | - | 71 W/m² | - |
| 1777960443 | 16.67° C | 83% | 1012.3 hPa | 0 mm | - | 66 W/m² | - |
| 1777959903 | 16.67° C | 83% | 1012.4 hPa | 0 mm | - | 54 W/m² | - |
| 1777959364 | 16.11° C | 83% | 1012.2 hPa | 0 mm | - | 45 W/m² | - |
| 1777958823 | 16.11° C | 83% | 1012.1 hPa | 0 mm | - | 34 W/m² | - |
| 1777958284 | 15.56° C | 83% | 1012.2 hPa | 0 mm | - | 23 W/m² | - |
| 1777957744 | 15.56° C | 83% | 1012.1 hPa | 0 mm | - | 14 W/m² | - |
| 1777957204 | 15.56° C | 84% | 1012.2 hPa | 0 mm | - | 9 W/m² | - |
| 1777956843 | 15.56° C | 84% | 1012.1 hPa | 0 mm | - | 6 W/m² | - |
| 1777956303 | 16.11° C | 84% | 1011.9 hPa | 0 mm | - | 2 W/m² | - |
| 1777955763 | 16.11° C | 84% | 1012.2 hPa | 0 mm | - | 0 W/m² | - |
| 1777955223 | 16.11° C | 85% | 1012.3 hPa | 0 mm | - | 0 W/m² | - |
| 1777954683 | 16.11° C | 84% | 1012.3 hPa | 0 mm | - | 0 W/m² | - |
| 1777954143 | 16.11° C | 84% | 1012.3 hPa | 0 mm | - | 0 W/m² | - |
| 1777953604 | 16.11° C | 84% | 1012.3 hPa | 0 mm | - | 0 W/m² | - |
| 1777953243 | 16.11° C | 84% | 1012.3 hPa | 0 mm | - | 0 W/m² | - |
| 1777952703 | 15.56° C | 84% | 1012.4 hPa | 0 mm | - | 0 W/m² | - |
| 1777952164 | 15.56° C | 84% | 1012.4 hPa | 0 mm | - | 0 W/m² | - |
| 1777951623 | 15.56° C | 84% | 1012.6 hPa | 0 mm | - | 0 W/m² | - |
| 1777951083 | 15.56° C | 84% | 1012.4 hPa | 0 mm | - | 0 W/m² | - |
| 1777950543 | 15.56° C | 83% | 1012.5 hPa | 0 mm | - | 0 W/m² | - |
| 1777950003 | 16.11° C | 84% | 1012.6 hPa | 0 mm | - | 0 W/m² | - |
| 1777949643 | 15.56° C | 85% | 1012.7 hPa | 0 mm | - | 0 W/m² | - |
| 1777949104 | 16.11° C | 85% | 1012.7 hPa | 0 mm | - | 0 W/m² | - |
* Rain latest hour (hover to see other rain measurements)
** Current wind speed in m/s (hover to see current wind gust speed)